CFG9PK EDDB-LGRP

Flight info

Callsign CFG9PK
Flight time 2h 45m
Altitude 35000
Route ARSAP3Q ARSAP DCT OLUMA DCT KULUV DCT DESEN DCT MAKAL DCT PARAK DCT OBLAK DCT NISVA DCT VANET DCT NIKTI DCT MES UN139 LURUS UL995 CODIC
Aircraft A321/M-SDE3FGHIRWY/LB1

Departure

Time 2026-05-07 03:07
Airport Berlin Brandenburg Airport (EDDB)

Arrival

Time 2026-05-07 05:53
Airport Rhodes International Airport "Diagoras" (LGRP)
Time Latitude Longitude Altitude Speed Heading
2026-05-07 02:50 52.36319 13.50625 155 ft 0 kts 69°
2026-05-07 02:59 52.36319 13.50624 154 ft 3 kts 69°
2026-05-07 02:59 52.36312 13.50594 154 ft 3 kts 69°
2026-05-07 03:00 52.36305 13.50565 154 ft 3 kts 69°
2026-05-07 03:00 52.36300 13.50534 153 ft 3 kts 95°
2026-05-07 03:00 52.36305 13.50502 153 ft 3 kts 127°
2026-05-07 03:00 52.36319 13.50481 153 ft 2 kts 152°
2026-05-07 03:01 52.36320 13.50480 153 ft 0 kts 152°
2026-05-07 03:02 52.36311 13.50487 153 ft 6 kts 157°
2026-05-07 03:02 52.36235 13.50533 153 ft 18 kts 160°
2026-05-07 03:02 52.36099 13.50620 153 ft 22 kts 159°
2026-05-07 03:03 52.35963 13.50703 152 ft 20 kts 159°
2026-05-07 03:03 52.35834 13.50769 152 ft 18 kts 186°
2026-05-07 03:03 52.35765 13.50587 148 ft 25 kts 249°
2026-05-07 03:03 52.35688 13.50259 148 ft 33 kts 249°
2026-05-07 03:04 52.35606 13.49920 148 ft 31 kts 249°
2026-05-07 03:04 52.35530 13.49597 148 ft 30 kts 248°
2026-05-07 03:04 52.35457 13.49291 148 ft 28 kts 249°
2026-05-07 03:04 52.35388 13.49001 148 ft 27 kts 249°
2026-05-07 03:05 52.35323 13.48733 148 ft 25 kts 249°
2026-05-07 03:05 52.35251 13.48496 148 ft 21 kts 208°
2026-05-07 03:05 52.35124 13.48545 152 ft 16 kts 140°
2026-05-07 03:05 52.35095 13.48696 154 ft 13 kts 98°
2026-05-07 03:06 52.35083 13.48824 156 ft 10 kts 99°
2026-05-07 03:06 52.35056 13.48925 157 ft 12 kts 124°
2026-05-07 03:06 52.35081 13.49111 158 ft 33 kts 69°
2026-05-07 03:06 52.35256 13.49843 157 ft 102 kts 69°
2026-05-07 03:07 52.35582 13.51207 187 ft 150 kts 67°
2026-05-07 03:07 52.35905 13.52810 822 ft 150 kts 85°
2026-05-07 03:07 52.35566 13.54427 1400 ft 163 kts 126°
2026-05-07 03:07 52.34661 13.55775 1599 ft 187 kts 138°
2026-05-07 03:08 52.33574 13.57118 1828 ft 203 kts 138°
2026-05-07 03:08 52.32476 13.58581 2379 ft 203 kts 136°
2026-05-07 03:08 52.31440 13.60137 2918 ft 202 kts 127°
2026-05-07 03:08 52.30893 13.62231 3307 ft 206 kts 92°
2026-05-07 03:09 52.31156 13.64616 3477 ft 223 kts 72°
2026-05-07 03:09 52.31627 13.67076 3948 ft 229 kts 71°
2026-05-07 03:09 52.32124 13.69579 4506 ft 232 kts 70°
2026-05-07 03:09 52.32623 13.72074 5036 ft 236 kts 70°
2026-05-07 03:10 52.32915 13.74734 5527 ft 243 kts 88°
2026-05-07 03:10 52.32609 13.77536 5811 ft 258 kts 108°
2026-05-07 03:10 52.32004 13.80418 6146 ft 276 kts 108°
2026-05-07 03:10 52.31376 13.83421 6784 ft 281 kts 108°
2026-05-07 03:11 52.30739 13.86459 7479 ft 284 kts 109°
2026-05-07 03:11 52.30089 13.89554 8174 ft 288 kts 109°
2026-05-07 03:11 52.29435 13.92665 8857 ft 291 kts 109°
2026-05-07 03:11 52.28781 13.95764 9544 ft 294 kts 110°
2026-05-07 03:12 52.28108 13.98949 10155 ft 300 kts 110°
2026-05-07 03:12 52.27402 14.02283 10305 ft 322 kts 110°
2026-05-07 03:12 52.26644 14.05853 10417 ft 343 kts 110°
2026-05-07 03:12 52.25843 14.09636 10529 ft 363 kts 110°
2026-05-07 03:13 52.25000 14.13638 10739 ft 378 kts 110°
2026-05-07 03:13 52.24141 14.17732 11240 ft 384 kts 110°
2026-05-07 03:13 52.23276 14.21884 11822 ft 388 kts 110°
2026-05-07 03:13 52.22404 14.26069 12429 ft 391 kts 110°
2026-05-07 03:14 52.21531 14.30233 13006 ft 394 kts 110°
2026-05-07 03:14 52.20636 14.34476 13576 ft 397 kts 110°
2026-05-07 03:14 52.18816 14.43045 14587 ft 403 kts 110°
2026-05-07 03:15 52.17891 14.47375 15085 ft 405 kts 111°
2026-05-07 03:15 52.16955 14.51752 15578 ft 408 kts 111°
2026-05-07 03:15 52.16016 14.56138 16051 ft 411 kts 111°
2026-05-07 03:15 52.15082 14.60491 16525 ft 414 kts 111°
2026-05-07 03:16 52.14127 14.64932 17012 ft 416 kts 111°
2026-05-07 03:16 52.13161 14.69422 17482 ft 419 kts 111°
2026-05-07 03:16 52.12201 14.73877 17947 ft 422 kts 111°
2026-05-07 03:16 52.11223 14.78401 18376 ft 425 kts 111°
2026-05-07 03:17 52.10239 14.82950 18791 ft 427 kts 111°
2026-05-07 03:17 52.09250 14.87522 19188 ft 429 kts 111°
2026-05-07 03:17 52.08252 14.92116 19580 ft 432 kts 112°
2026-05-07 03:17 52.07244 14.96733 19979 ft 434 kts 112°
2026-05-07 03:18 52.06230 15.01373 20374 ft 436 kts 112°
2026-05-07 03:18 52.05210 15.06024 20776 ft 439 kts 112°
2026-05-07 03:18 52.04179 15.10723 21162 ft 441 kts 112°
2026-05-07 03:18 52.03145 15.15423 21543 ft 444 kts 112°
2026-05-07 03:19 52.02098 15.20154 21931 ft 446 kts 113°
2026-05-07 03:19 52.01054 15.24854 22310 ft 448 kts 113°
2026-05-07 03:19 51.99992 15.29621 22671 ft 451 kts 113°
2026-05-07 03:19 51.98918 15.34437 23064 ft 453 kts 113°
2026-05-07 03:20 51.97843 15.39254 23416 ft 456 kts 114°
2026-05-07 03:20 51.96752 15.44129 23733 ft 458 kts 114°
2026-05-07 03:20 51.95665 15.48989 24049 ft 460 kts 114°
2026-05-07 03:20 51.94585 15.53819 24355 ft 461 kts 114°
2026-05-07 03:21 51.93485 15.58733 24661 ft 463 kts 114°
2026-05-07 03:21 51.92378 15.63649 24970 ft 464 kts 114°
2026-05-07 03:21 51.91262 15.68586 25284 ft 466 kts 114°
2026-05-07 03:21 51.90125 15.73433 25574 ft 466 kts 118°
2026-05-07 03:22 51.88627 15.78059 25880 ft 462 kts 127°
2026-05-07 03:22 51.86826 15.82363 26170 ft 462 kts 129°
2026-05-07 03:22 51.85000 15.86652 26474 ft 462 kts 129°
2026-05-07 03:22 51.83179 15.90935 26884 ft 461 kts 129°
2026-05-07 03:23 51.81363 15.95205 27282 ft 459 kts 129°
2026-05-07 03:23 51.79548 15.99467 27685 ft 458 kts 130°
2026-05-07 03:23 51.77741 16.03708 28076 ft 457 kts 130°
2026-05-07 03:23 51.75958 16.07886 28465 ft 456 kts 130°
2026-05-07 03:24 51.74156 16.12098 28849 ft 455 kts 130°
2026-05-07 03:24 51.72353 16.16308 29238 ft 454 kts 130°
2026-05-07 03:24 51.70559 16.20499 29606 ft 453 kts 131°
2026-05-07 03:24 51.68791 16.24619 29969 ft 452 kts 131°
2026-05-07 03:25 51.66965 16.28813 30278 ft 449 kts 134°
2026-05-07 03:25 51.64939 16.32507 30570 ft 441 kts 143°
2026-05-07 03:25 51.62592 16.35639 30846 ft 433 kts 152°
2026-05-07 03:25 51.60032 16.38126 31127 ft 428 kts 158°
2026-05-07 03:26 51.57414 16.40413 31411 ft 427 kts 157°
2026-05-07 03:26 51.54801 16.42705 31722 ft 427 kts 158°
2026-05-07 03:26 51.52227 16.44965 32013 ft 427 kts 158°
2026-05-07 03:26 51.49621 16.47255 32319 ft 426 kts 158°
2026-05-07 03:27 51.47011 16.49549 32627 ft 426 kts 158°
2026-05-07 03:27 51.44411 16.51836 32925 ft 425 kts 158°
2026-05-07 03:27 51.41813 16.54115 33227 ft 425 kts 158°
2026-05-07 03:27 51.39217 16.56386 33548 ft 424 kts 158°
2026-05-07 03:28 51.36660 16.58620 33832 ft 424 kts 158°
2026-05-07 03:28 51.34063 16.60882 34067 ft 424 kts 158°
2026-05-07 03:28 51.31462 16.63139 34270 ft 424 kts 158°
2026-05-07 03:28 51.28862 16.65391 34457 ft 425 kts 158°
2026-05-07 03:29 51.26257 16.67644 34650 ft 426 kts 158°
2026-05-07 03:29 51.23646 16.69901 34805 ft 427 kts 158°
2026-05-07 03:29 51.21067 16.72131 34832 ft 427 kts 158°
2026-05-07 03:30 51.15837 16.76653 34836 ft 427 kts 158°
2026-05-07 03:30 51.10605 16.81183 34837 ft 427 kts 158°
2026-05-07 03:31 51.05406 16.85662 34836 ft 427 kts 158°
2026-05-07 03:31 51.00171 16.90146 34834 ft 427 kts 158°
2026-05-07 03:32 50.94925 16.94621 34826 ft 427 kts 158°
2026-05-07 03:32 50.89685 16.99087 34818 ft 427 kts 158°
2026-05-07 03:33 50.84478 17.03518 34811 ft 427 kts 158°
2026-05-07 03:33 50.79232 17.07971 34799 ft 427 kts 158°
2026-05-07 03:34 50.73980 17.12426 34797 ft 427 kts 158°
2026-05-07 03:34 50.68759 17.16832 34793 ft 428 kts 158°
2026-05-07 03:35 50.63501 17.21250 34795 ft 428 kts 158°
2026-05-07 03:35 50.58247 17.25670 34802 ft 428 kts 158°
2026-05-07 03:36 50.52975 17.30076 34804 ft 429 kts 158°
2026-05-07 03:36 50.47700 17.34487 34796 ft 429 kts 158°
2026-05-07 03:37 50.42456 17.38860 34798 ft 429 kts 158°
2026-05-07 03:37 50.37166 17.43251 34804 ft 430 kts 158°
2026-05-07 03:38 50.31870 17.47657 34806 ft 430 kts 158°
2026-05-07 03:38 50.26563 17.51980 34808 ft 426 kts 163°
2026-05-07 03:39 50.21122 17.55508 34810 ft 425 kts 163°
2026-05-07 03:39 50.15631 17.59038 34809 ft 425 kts 163°
2026-05-07 03:40 50.10187 17.62545 34808 ft 425 kts 163°
2026-05-07 03:40 50.04712 17.66069 34802 ft 425 kts 163°
2026-05-07 03:41 49.99256 17.69563 34802 ft 425 kts 163°
2026-05-07 03:41 49.93785 17.73056 34802 ft 425 kts 163°
2026-05-07 03:42 49.88303 17.76552 34806 ft 425 kts 163°
2026-05-07 03:42 49.83746 17.79449 34807 ft 426 kts 163°
2026-05-07 03:43 49.78251 17.82944 34808 ft 426 kts 163°
2026-05-07 03:43 49.72760 17.86428 34811 ft 426 kts 163°
2026-05-07 03:44 49.67291 17.89884 34815 ft 426 kts 163°
2026-05-07 03:44 49.61784 17.93343 34812 ft 426 kts 163°
2026-05-07 03:45 49.56308 17.96785 34811 ft 427 kts 163°
2026-05-07 03:45 49.50805 18.00247 34812 ft 427 kts 163°
2026-05-07 03:46 49.45328 18.03672 34814 ft 427 kts 163°
2026-05-07 03:46 49.39806 18.07111 34813 ft 427 kts 163°
2026-05-07 03:47 49.34292 18.10552 34818 ft 428 kts 163°
2026-05-07 03:47 49.28791 18.13970 34833 ft 428 kts 163°
2026-05-07 03:48 49.23263 18.17403 34843 ft 429 kts 162°
2026-05-07 03:48 49.17763 18.21016 34856 ft 430 kts 161°
2026-05-07 03:49 49.12275 18.24740 34856 ft 431 kts 161°
2026-05-07 03:49 49.06787 18.28427 34858 ft 431 kts 161°
2026-05-07 03:50 49.01314 18.32053 34862 ft 431 kts 161°
2026-05-07 03:50 48.95808 18.35681 34862 ft 431 kts 161°
2026-05-07 03:51 48.90282 18.39315 34867 ft 431 kts 161°
2026-05-07 03:51 48.84784 18.42923 34870 ft 431 kts 161°
2026-05-07 03:52 48.79251 18.46541 34876 ft 431 kts 161°
2026-05-07 03:52 48.73775 18.50114 34877 ft 432 kts 161°
2026-05-07 03:53 48.68254 18.53723 34881 ft 432 kts 161°
2026-05-07 03:53 48.62721 18.57324 34885 ft 432 kts 161°
2026-05-07 03:54 48.57209 18.60904 34888 ft 433 kts 161°
2026-05-07 03:54 48.51664 18.64492 34888 ft 433 kts 161°
2026-05-07 03:55 48.46106 18.68081 34886 ft 434 kts 161°
2026-05-07 03:55 48.40546 18.71665 34890 ft 434 kts 161°
2026-05-07 03:56 48.35011 18.75231 34893 ft 435 kts 161°
2026-05-07 03:56 48.29429 18.78812 34894 ft 435 kts 161°
2026-05-07 03:57 48.23847 18.82382 34891 ft 436 kts 161°
2026-05-07 03:57 48.18291 18.85930 34894 ft 436 kts 161°
2026-05-07 03:58 48.12693 18.89490 34895 ft 437 kts 161°
2026-05-07 03:58 48.07087 18.93053 34895 ft 437 kts 161°
2026-05-07 03:59 48.01503 18.96590 34901 ft 437 kts 161°
2026-05-07 03:59 47.95884 19.00139 34899 ft 437 kts 161°
2026-05-07 04:00 47.90308 19.03657 34912 ft 438 kts 161°
2026-05-07 04:00 47.84684 19.07205 34912 ft 438 kts 161°
2026-05-07 04:01 47.79060 19.10739 34918 ft 438 kts 161°
2026-05-07 04:01 47.73461 19.14241 34924 ft 437 kts 161°
2026-05-07 04:02 47.67826 19.17757 34923 ft 438 kts 162°
2026-05-07 04:02 47.62235 19.21240 34928 ft 438 kts 162°
2026-05-07 04:03 47.56610 19.24736 34932 ft 439 kts 162°
2026-05-07 04:03 47.50973 19.28235 34930 ft 439 kts 162°
2026-05-07 04:04 47.45351 19.31725 34927 ft 440 kts 162°
2026-05-07 04:04 47.39692 19.35225 34926 ft 441 kts 162°
2026-05-07 04:05 47.34014 19.38721 34919 ft 441 kts 162°
2026-05-07 04:05 47.28363 19.42179 34920 ft 442 kts 162°
2026-05-07 04:06 47.22665 19.45670 34924 ft 443 kts 162°
2026-05-07 04:06 47.16936 19.49199 34997 ft 451 kts 161°
2026-05-07 04:06 47.14032 19.51005 35181 ft 452 kts 161°
2026-05-07 04:07 47.11167 19.52804 35373 ft 452 kts 161°
2026-05-07 04:07 47.08274 19.54639 35617 ft 452 kts 161°
2026-05-07 04:07 47.05392 19.56493 35859 ft 451 kts 160°
2026-05-07 04:07 47.02523 19.58366 36116 ft 450 kts 160°
2026-05-07 04:08 46.99670 19.60257 36388 ft 448 kts 160°
2026-05-07 04:08 46.96839 19.62162 36675 ft 446 kts 159°
2026-05-07 04:08 46.94019 19.64082 36941 ft 445 kts 160°
2026-05-07 04:09 46.88321 19.67568 36652 ft 445 kts 162°
2026-05-07 04:09 46.85448 19.69298 35988 ft 445 kts 162°
2026-05-07 04:09 46.82558 19.70889 35402 ft 441 kts 166°
2026-05-07 04:10 46.76783 19.73693 35235 ft 440 kts 166°
2026-05-07 04:10 46.71034 19.76821 35014 ft 445 kts 163°
2026-05-07 04:11 46.65295 19.80314 34951 ft 447 kts 162°
2026-05-07 04:11 46.59576 19.83840 34953 ft 447 kts 162°
2026-05-07 04:12 46.53824 19.87301 34959 ft 447 kts 162°
2026-05-07 04:12 46.48076 19.90704 34964 ft 447 kts 163°
2026-05-07 04:13 46.42300 19.94117 34959 ft 448 kts 163°
2026-05-07 04:13 46.36523 19.97540 34955 ft 448 kts 163°
2026-05-07 04:14 46.30771 20.00942 34953 ft 448 kts 163°
2026-05-07 04:14 46.24979 20.04361 34952 ft 449 kts 163°
2026-05-07 04:15 46.19187 20.07767 34950 ft 449 kts 163°
2026-05-07 04:15 46.13611 20.11869 34949 ft 456 kts 153°
2026-05-07 04:16 46.08200 20.16726 34952 ft 458 kts 153°
2026-05-07 04:16 46.02814 20.21544 34952 ft 458 kts 153°
2026-05-07 04:17 45.97374 20.26381 34953 ft 459 kts 153°
2026-05-07 04:17 45.91931 20.31221 34954 ft 460 kts 153°
2026-05-07 04:18 45.86509 20.36022 34957 ft 461 kts 153°
2026-05-07 04:18 45.81041 20.40845 34958 ft 462 kts 153°
2026-05-07 04:19 45.75547 20.45681 34963 ft 463 kts 153°
2026-05-07 04:19 45.70047 20.50515 34964 ft 464 kts 153°
2026-05-07 04:20 45.64570 20.55325 34965 ft 464 kts 153°
2026-05-07 04:20 45.59053 20.60162 34967 ft 465 kts 153°
2026-05-07 04:21 45.50752 20.67417 34979 ft 466 kts 153°
2026-05-07 04:21 45.45208 20.72243 34977 ft 467 kts 153°
2026-05-07 04:22 45.39691 20.77030 34985 ft 467 kts 153°
2026-05-07 04:22 45.34134 20.81840 34988 ft 468 kts 153°
2026-05-07 04:23 45.28561 20.86663 34982 ft 468 kts 153°
2026-05-07 04:23 45.23020 20.91440 34985 ft 468 kts 153°
2026-05-07 04:24 45.18375 20.95437 34984 ft 469 kts 153°
2026-05-07 04:24 45.11864 21.01020 34987 ft 469 kts 153°
2026-05-07 04:25 45.07178 21.05034 34990 ft 470 kts 153°
2026-05-07 04:25 45.01606 21.09810 34994 ft 471 kts 153°
2026-05-07 04:26 44.95985 21.14593 34987 ft 471 kts 153°
2026-05-07 04:26 44.90353 21.19369 34993 ft 472 kts 153°
2026-05-07 04:27 44.84717 21.24157 34997 ft 472 kts 153°
2026-05-07 04:27 44.79077 21.28946 35002 ft 473 kts 153°
2026-05-07 04:28 44.73457 21.33693 35008 ft 473 kts 153°
2026-05-07 04:28 44.67795 21.38457 35013 ft 474 kts 153°
2026-05-07 04:29 44.62129 21.43216 35016 ft 474 kts 152°
2026-05-07 04:29 44.56458 21.47975 35017 ft 474 kts 152°
2026-05-07 04:30 44.50815 21.52707 35022 ft 475 kts 152°
2026-05-07 04:30 44.45133 21.57462 35029 ft 475 kts 152°
2026-05-07 04:31 44.39431 21.62206 35031 ft 476 kts 152°
2026-05-07 04:31 44.33762 21.66912 35029 ft 476 kts 152°
2026-05-07 04:32 44.28062 21.71641 35037 ft 477 kts 152°
2026-05-07 04:32 44.22343 21.76379 35044 ft 477 kts 152°
2026-05-07 04:33 44.16661 21.81080 35033 ft 477 kts 152°
2026-05-07 04:33 44.10936 21.85794 35043 ft 478 kts 152°
2026-05-07 04:34 44.05203 21.90500 35047 ft 478 kts 152°
2026-05-07 04:34 43.99464 21.95200 35049 ft 478 kts 152°
2026-05-07 04:35 43.93763 21.99865 35046 ft 479 kts 152°
2026-05-07 04:35 43.88025 22.04562 35047 ft 479 kts 152°
2026-05-07 04:36 43.82270 22.09258 35054 ft 480 kts 152°
2026-05-07 04:36 43.76495 22.13938 35056 ft 480 kts 152°
2026-05-07 04:37 43.70725 22.18615 35047 ft 480 kts 152°
2026-05-07 04:37 43.64990 22.23249 35053 ft 480 kts 152°
2026-05-07 04:38 43.59210 22.27909 35060 ft 481 kts 152°
2026-05-07 04:38 43.53418 22.32571 35064 ft 481 kts 152°
2026-05-07 04:39 43.47667 22.37203 35065 ft 481 kts 152°
2026-05-07 04:39 43.41926 22.42018 35062 ft 482 kts 150°
2026-05-07 04:40 43.36271 22.46897 35073 ft 482 kts 150°
2026-05-07 04:40 43.30564 22.51779 35072 ft 483 kts 150°
2026-05-07 04:41 43.24862 22.56595 35074 ft 483 kts 150°
2026-05-07 04:41 43.19142 22.61405 35091 ft 483 kts 150°
2026-05-07 04:42 43.13405 22.66240 35100 ft 484 kts 150°
2026-05-07 04:42 43.07660 22.71060 35104 ft 484 kts 150°
2026-05-07 04:43 43.01941 22.75846 35107 ft 483 kts 150°
2026-05-07 04:43 42.96226 22.80635 35096 ft 484 kts 149°
2026-05-07 04:44 42.90590 22.85682 35103 ft 484 kts 147°
2026-05-07 04:44 42.85022 22.90891 35107 ft 484 kts 147°
2026-05-07 04:45 42.79445 22.96057 35101 ft 484 kts 147°
2026-05-07 04:45 42.73872 23.01116 35101 ft 484 kts 148°
2026-05-07 04:46 42.68244 23.06184 35099 ft 485 kts 148°
2026-05-07 04:46 42.62616 23.11266 35103 ft 485 kts 148°
2026-05-07 04:47 42.56993 23.16341 35099 ft 485 kts 147°
2026-05-07 04:47 42.51396 23.21389 35112 ft 485 kts 147°
2026-05-07 04:48 42.45762 23.26451 35101 ft 485 kts 147°
2026-05-07 04:48 42.40126 23.31499 35105 ft 485 kts 148°
2026-05-07 04:49 42.34482 23.36551 35104 ft 485 kts 147°
2026-05-07 04:49 42.28873 23.41567 35102 ft 486 kts 147°
2026-05-07 04:50 42.23311 23.46784 35103 ft 487 kts 145°
2026-05-07 04:50 42.17828 23.52159 35107 ft 487 kts 144°
2026-05-07 04:51 42.12363 23.57497 35106 ft 488 kts 145°
2026-05-07 04:51 42.06815 23.62818 35114 ft 488 kts 145°
2026-05-07 04:52 42.01257 23.68101 35114 ft 489 kts 145°
2026-05-07 04:52 41.95730 23.73353 35117 ft 490 kts 145°
2026-05-07 04:53 41.90159 23.78651 35121 ft 490 kts 145°
2026-05-07 04:53 41.84579 23.83950 35121 ft 490 kts 145°
2026-05-07 04:54 41.79039 23.89204 35120 ft 491 kts 145°
2026-05-07 04:54 41.73441 23.94489 35126 ft 491 kts 145°
2026-05-07 04:55 41.67867 23.99736 35121 ft 492 kts 145°
2026-05-07 04:55 41.62261 24.05006 35124 ft 492 kts 145°
2026-05-07 04:56 41.56651 24.10271 35121 ft 492 kts 146°
2026-05-07 04:56 41.50584 24.14481 35119 ft 491 kts 158°
2026-05-07 04:57 41.44332 24.18021 35112 ft 491 kts 158°
2026-05-07 04:57 41.38030 24.21613 35110 ft 492 kts 158°
2026-05-07 04:58 41.31734 24.25193 35105 ft 492 kts 158°
2026-05-07 04:58 41.25452 24.28750 35100 ft 493 kts 158°
2026-05-07 04:59 41.19160 24.32300 35094 ft 493 kts 158°
2026-05-07 04:59 41.12824 24.35868 35094 ft 494 kts 158°
2026-05-07 05:00 41.06535 24.39406 35096 ft 494 kts 158°
2026-05-07 05:00 41.00199 24.42962 35099 ft 494 kts 158°
2026-05-07 05:01 40.93855 24.46507 35098 ft 494 kts 158°
2026-05-07 05:01 40.87530 24.50042 35103 ft 495 kts 158°
2026-05-07 05:02 40.81186 24.53589 35088 ft 495 kts 158°
2026-05-07 05:02 40.74819 24.57135 35095 ft 496 kts 158°
2026-05-07 05:03 40.68477 24.60649 35078 ft 496 kts 158°
2026-05-07 05:03 40.62103 24.64174 35081 ft 496 kts 158°
2026-05-07 05:04 40.55748 24.67699 35092 ft 497 kts 158°
2026-05-07 05:04 40.49360 24.71224 35092 ft 497 kts 158°
2026-05-07 05:05 40.42995 24.74726 35085 ft 498 kts 158°
2026-05-07 05:05 40.36594 24.78244 35089 ft 498 kts 158°
2026-05-07 05:06 40.30184 24.81765 35088 ft 498 kts 158°
2026-05-07 05:06 40.23808 24.85256 35087 ft 498 kts 159°
2026-05-07 05:07 40.17402 24.88758 35089 ft 498 kts 159°
2026-05-07 05:07 40.12084 24.91659 35083 ft 498 kts 159°
2026-05-07 05:08 40.05666 24.95152 35091 ft 498 kts 159°
2026-05-07 05:08 39.99251 24.98633 35089 ft 499 kts 159°
2026-05-07 05:09 39.92832 25.02107 35090 ft 499 kts 159°
2026-05-07 05:09 39.86448 25.05562 35087 ft 499 kts 159°
2026-05-07 05:10 39.80028 25.09024 35094 ft 499 kts 159°
2026-05-07 05:10 39.73646 25.12460 35090 ft 499 kts 159°
2026-05-07 05:11 39.67236 25.15911 35100 ft 498 kts 159°
2026-05-07 05:11 39.60820 25.19362 35096 ft 498 kts 159°
2026-05-07 05:12 39.54395 25.22808 35105 ft 498 kts 159°
2026-05-07 05:12 39.48013 25.26221 35100 ft 498 kts 159°
2026-05-07 05:13 39.41589 25.29641 35094 ft 498 kts 159°
2026-05-07 05:13 39.35157 25.33058 35093 ft 498 kts 159°
2026-05-07 05:14 39.28787 25.36446 35103 ft 499 kts 159°
2026-05-07 05:14 39.22350 25.39854 35096 ft 499 kts 159°
2026-05-07 05:15 39.15930 25.43244 35113 ft 498 kts 159°
2026-05-07 05:15 39.09495 25.46644 35115 ft 498 kts 159°
2026-05-07 05:16 39.03106 25.50010 35119 ft 498 kts 159°
2026-05-07 05:16 38.96717 25.53370 35120 ft 498 kts 159°
2026-05-07 05:17 38.90289 25.56745 35124 ft 498 kts 159°
2026-05-07 05:17 38.83885 25.60099 35122 ft 498 kts 159°
2026-05-07 05:18 38.77459 25.63464 35124 ft 498 kts 159°
2026-05-07 05:18 38.71042 25.66806 35120 ft 498 kts 159°
2026-05-07 05:19 38.64656 25.70135 35127 ft 498 kts 159°
2026-05-07 05:19 38.58243 25.73488 35123 ft 498 kts 159°
2026-05-07 05:20 38.51802 25.76821 35132 ft 497 kts 159°
2026-05-07 05:20 38.45416 25.80127 35128 ft 497 kts 159°
2026-05-07 05:21 38.35767 25.85119 35141 ft 497 kts 159°
2026-05-07 05:22 38.29343 25.88428 35137 ft 497 kts 160°
2026-05-07 05:22 38.22918 25.91700 35141 ft 497 kts 161°
2026-05-07 05:23 38.16460 25.94686 35137 ft 496 kts 163°
2026-05-07 05:23 38.09921 25.97558 35137 ft 496 kts 163°
2026-05-07 05:24 38.03401 26.00463 35132 ft 496 kts 162°
2026-05-07 05:24 37.96932 26.03414 35132 ft 496 kts 162°
2026-05-07 05:25 37.90422 26.06391 35060 ft 496 kts 162°
2026-05-07 05:25 37.87215 26.07847 34439 ft 494 kts 162°
2026-05-07 05:25 37.83997 26.09301 33966 ft 489 kts 162°
2026-05-07 05:25 37.80788 26.10744 33445 ft 487 kts 161°
2026-05-07 05:26 37.77584 26.12187 32928 ft 487 kts 161°
2026-05-07 05:26 37.74376 26.13634 32430 ft 488 kts 161°
2026-05-07 05:26 37.71169 26.15085 31946 ft 489 kts 161°
2026-05-07 05:26 37.67990 26.16514 31472 ft 491 kts 161°
2026-05-07 05:27 37.64764 26.17957 30999 ft 492 kts 161°
2026-05-07 05:27 37.61529 26.19403 30537 ft 493 kts 161°
2026-05-07 05:27 37.58279 26.20856 30061 ft 494 kts 161°
2026-05-07 05:27 37.55039 26.22310 29524 ft 495 kts 161°
2026-05-07 05:28 37.51786 26.23771 29003 ft 496 kts 161°
2026-05-07 05:28 37.48567 26.25217 28500 ft 497 kts 161°
2026-05-07 05:28 37.45304 26.26680 27999 ft 498 kts 161°
2026-05-07 05:28 37.42035 26.28140 27500 ft 498 kts 161°
2026-05-07 05:29 37.38761 26.29599 27017 ft 499 kts 162°
2026-05-07 05:29 37.35473 26.31061 26534 ft 500 kts 162°
2026-05-07 05:29 37.32180 26.32524 26063 ft 501 kts 162°
2026-05-07 05:29 37.28890 26.33987 25617 ft 501 kts 162°
2026-05-07 05:30 37.25596 26.35452 25147 ft 502 kts 162°
2026-05-07 05:30 37.22336 26.36904 24702 ft 503 kts 162°
2026-05-07 05:30 37.19041 26.38370 24262 ft 503 kts 162°
2026-05-07 05:30 37.15736 26.39835 23827 ft 500 kts 162°
2026-05-07 05:31 37.12451 26.41289 23329 ft 497 kts 162°
2026-05-07 05:31 37.09203 26.42728 22824 ft 494 kts 162°
2026-05-07 05:31 37.05998 26.44146 22321 ft 491 kts 162°
2026-05-07 05:31 37.02785 26.45566 21836 ft 488 kts 162°
2026-05-07 05:32 36.99591 26.46976 21352 ft 485 kts 162°
2026-05-07 05:32 36.96411 26.48385 20874 ft 482 kts 161°
2026-05-07 05:32 36.93372 26.50110 20416 ft 480 kts 150°
2026-05-07 05:32 36.90651 26.52492 19948 ft 477 kts 139°
2026-05-07 05:33 36.88345 26.55453 19498 ft 474 kts 127°
2026-05-07 05:33 36.86551 26.58823 19054 ft 469 kts 116°
2026-05-07 05:33 36.85211 26.62507 18615 ft 465 kts 111°
2026-05-07 05:33 36.83944 26.66223 18145 ft 463 kts 111°
2026-05-07 05:34 36.82683 26.69895 17653 ft 459 kts 111°
2026-05-07 05:34 36.81414 26.73571 17154 ft 455 kts 111°
2026-05-07 05:34 36.80166 26.77180 16676 ft 452 kts 111°
2026-05-07 05:34 36.78927 26.80770 16205 ft 448 kts 111°
2026-05-07 05:35 36.77714 26.84281 15733 ft 445 kts 111°
2026-05-07 05:35 36.76494 26.87814 15284 ft 441 kts 111°
2026-05-07 05:35 36.75283 26.91321 14825 ft 438 kts 111°
2026-05-07 05:35 36.74078 26.94798 14381 ft 435 kts 111°
2026-05-07 05:36 36.72881 26.98245 13934 ft 429 kts 111°
2026-05-07 05:36 36.71705 27.01629 13551 ft 418 kts 111°
2026-05-07 05:36 36.70575 27.04874 13265 ft 405 kts 111°
2026-05-07 05:36 36.69467 27.08052 12981 ft 394 kts 111°
2026-05-07 05:37 36.68384 27.11151 12695 ft 383 kts 111°
2026-05-07 05:37 36.67333 27.14153 12418 ft 374 kts 111°
2026-05-07 05:37 36.66308 27.17086 12151 ft 365 kts 111°
2026-05-07 05:37 36.65318 27.19921 11867 ft 356 kts 111°
2026-05-07 05:38 36.64328 27.22755 11583 ft 348 kts 111°
2026-05-07 05:38 36.63384 27.25457 11308 ft 341 kts 111°
2026-05-07 05:38 36.62438 27.28156 11025 ft 335 kts 111°
2026-05-07 05:38 36.61511 27.30799 10731 ft 329 kts 111°
2026-05-07 05:39 36.60600 27.33397 10445 ft 323 kts 111°
2026-05-07 05:39 36.59718 27.35909 10158 ft 318 kts 111°
2026-05-07 05:39 36.58836 27.38414 9857 ft 313 kts 111°
2026-05-07 05:39 36.57965 27.40884 9543 ft 308 kts 111°
2026-05-07 05:40 36.57111 27.43309 9223 ft 303 kts 111°
2026-05-07 05:40 36.56267 27.45701 8918 ft 299 kts 112°
2026-05-07 05:40 36.55452 27.48011 8606 ft 291 kts 112°
2026-05-07 05:40 36.54635 27.50326 8313 ft 290 kts 112°
2026-05-07 05:41 36.53828 27.52609 8002 ft 285 kts 112°
2026-05-07 05:41 36.53037 27.54852 7706 ft 281 kts 112°
2026-05-07 05:41 36.52263 27.57046 7415 ft 277 kts 112°
2026-05-07 05:41 36.51494 27.59215 7116 ft 272 kts 112°
2026-05-07 05:42 36.50735 27.61358 6828 ft 268 kts 112°
2026-05-07 05:42 36.49983 27.63469 6542 ft 265 kts 112°
2026-05-07 05:42 36.49241 27.65550 6237 ft 261 kts 113°
2026-05-07 05:42 36.48510 27.67601 5922 ft 258 kts 113°
2026-05-07 05:43 36.47790 27.69627 5629 ft 255 kts 113°
2026-05-07 05:43 36.47121 27.71621 5381 ft 250 kts 109°
2026-05-07 05:43 36.46595 27.73663 5132 ft 246 kts 104°
2026-05-07 05:43 36.46215 27.75717 4881 ft 242 kts 99°
2026-05-07 05:44 36.45938 27.77763 4611 ft 238 kts 98°
2026-05-07 05:44 36.45664 27.79792 4369 ft 237 kts 99°
2026-05-07 05:44 36.45392 27.81806 4152 ft 235 kts 98°
2026-05-07 05:44 36.45127 27.83779 3893 ft 228 kts 98°
2026-05-07 05:45 36.44873 27.85673 3649 ft 222 kts 99°
2026-05-07 05:45 36.44614 27.87539 3397 ft 217 kts 101°
2026-05-07 05:45 36.44257 27.89340 3160 ft 213 kts 105°
2026-05-07 05:45 36.43774 27.91076 2924 ft 211 kts 111°
2026-05-07 05:46 36.43178 27.92738 2733 ft 211 kts 116°
2026-05-07 05:46 36.42467 27.94328 2515 ft 210 kts 121°
2026-05-07 05:46 36.41661 27.95804 2329 ft 204 kts 126°
2026-05-07 05:46 36.41023 27.97303 2121 ft 193 kts 99°
2026-05-07 05:47 36.41153 27.98917 1921 ft 187 kts 71°
2026-05-07 05:47 36.41619 28.00421 1715 ft 185 kts 66°
2026-05-07 05:47 36.42114 28.01841 1581 ft 173 kts 65°
2026-05-07 05:47 36.42588 28.03181 1530 ft 167 kts 65°
2026-05-07 05:48 36.43052 28.04491 1535 ft 165 kts 65°
2026-05-07 05:48 36.43509 28.05778 1531 ft 165 kts 65°
2026-05-07 05:48 36.43970 28.07081 1539 ft 165 kts 65°
2026-05-07 05:48 36.44431 28.08384 1538 ft 164 kts 65°
2026-05-07 05:49 36.44892 28.09693 1531 ft 164 kts 65°
2026-05-07 05:49 36.45333 28.10945 1562 ft 154 kts 65°
2026-05-07 05:49 36.45755 28.12145 1544 ft 149 kts 66°
2026-05-07 05:49 36.46157 28.13331 1469 ft 148 kts 70°
2026-05-07 05:50 36.46242 28.14592 1343 ft 148 kts 98°
2026-05-07 05:50 36.45858 28.15763 1205 ft 147 kts 126°
2026-05-07 05:50 36.45051 28.16518 1181 ft 148 kts 161°
2026-05-07 05:50 36.44039 28.16501 1097 ft 147 kts 200°
2026-05-07 05:51 36.43136 28.15921 917 ft 147 kts 217°
2026-05-07 05:51 36.42494 28.14954 764 ft 146 kts 242°
2026-05-07 05:51 36.42071 28.13813 623 ft 145 kts 248°
2026-05-07 05:51 36.41714 28.12644 459 ft 145 kts 251°
2026-05-07 05:52 36.41491 28.11866 330 ft 144 kts 250°
2026-05-07 05:52 36.41031 28.10315 68 ft 143 kts 250°
2026-05-07 05:52 36.40711 28.09219 30 ft 117 kts 250°
2026-05-07 05:52 36.40555 28.08692 26 ft 81 kts 250°
2026-05-07 05:53 36.40398 28.08172 24 ft 46 kts 250°
2026-05-07 05:53 36.40279 28.07956 30 ft 13 kts 221°
2026-05-07 05:53 36.40207 28.07879 25 ft 14 kts 220°
2026-05-07 05:53 36.40149 28.07897 29 ft 9 kts 96°
2026-05-07 05:54 36.40163 28.07964 27 ft 7 kts 72°
2026-05-07 05:54 36.40181 28.08029 27 ft 12 kts 71°
2026-05-07 05:54 36.40222 28.08169 30 ft 23 kts 70°
2026-05-07 05:54 36.40283 28.08375 27 ft 26 kts 70°
2026-05-07 05:55 36.40345 28.08590 30 ft 27 kts 70°
2026-05-07 05:55 36.40400 28.08801 29 ft 25 kts 84°
2026-05-07 05:55 36.40399 28.08988 29 ft 18 kts 83°
2026-05-07 05:55 36.40389 28.09074 29 ft 9 kts 162°
2026-05-07 05:56 36.40356 28.09088 29 ft 0 kts 162°